Time,TemperatureF,DewpointF,PressureIn,WindDirection,WindDirectionDegrees,WindSpeedMPH,WindSpeedGustMPH,Humidity,HourlyPrecipIn,Conditions,Clouds,dailyrainin,SoftwareType,DateUTC
2013-11-14 00:02:00,31.2,18.2,30.10,SW,216,0.0,0.0,58,0.00,,CLR,0.00,VWS V14.01,2013-11-14 05:02:00,
2013-11-14 00:07:00,31.0,18.0,30.10,SW,224,0.0,0.0,58,0.00,,CLR,0.00,VWS V14.01,2013-11-14 05:07:00,
2013-11-14 00:12:00,31.0,18.0,30.10,SW,220,0.0,0.0,58,0.00,,CLR,0.00,VWS V14.01,2013-11-14 05:12:00,
2013-11-14 00:17:00,30.9,17.9,30.10,SW,217,0.0,0.0,58,0.00,,CLR,0.00,VWS V14.01,2013-11-14 05:17:00,
2013-11-14 00:22:00,30.9,18.3,30.10,SW,217,0.0,0.0,59,0.00,,CLR,0.00,VWS V14.01,2013-11-14 05:22:00,
2013-11-14 00:27:00,30.7,18.1,30.10,SSW,195,0.0,0.0,59,0.00,,CLR,0.00,VWS V14.01,2013-11-14 05:27:00,
2013-11-14 00:32:00,30.7,18.1,30.09,SSW,205,0.0,0.0,59,0.00,,CLR,0.00,VWS V14.01,2013-11-14 05:32:00,
2013-11-14 00:37:00,30.7,18.1,30.09,SSW,198,0.0,0.0,59,0.00,,CLR,0.00,VWS V14.01,2013-11-14 05:37:00,
2013-11-14 00:42:00,30.7,18.5,30.09,SSW,213,0.0,0.0,60,0.00,,CLR,0.00,VWS V14.01,2013-11-14 05:42:00,
2013-11-14 00:52:00,30.7,18.5,30.09,SW,216,0.0,0.0,60,0.00,,CLR,0.00,VWS V14.01,2013-11-14 05:52:00,
2013-11-14 01:02:00,30.7,18.5,30.09,South,182,0.0,0.0,60,0.00,,CLR,0.00,VWS V14.01,2013-11-14 06:02:00,
2013-11-14 01:07:00,30.9,18.7,30.09,SSW,203,0.0,0.0,60,0.00,,CLR,0.00,VWS V14.01,2013-11-14 06:07:00,
2013-11-14 01:12:00,30.9,18.7,30.09,SSW,213,0.0,0.0,60,0.00,,CLR,0.00,VWS V14.01,2013-11-14 06:12:00,
2013-11-14 01:17:00,30.7,18.5,30.08,SW,215,0.0,0.0,60,0.00,,CLR,0.00,VWS V14.01,2013-11-14 06:17:00,
2013-11-14 01:22:00,30.9,18.7,30.08,SW,224,0.0,0.0,60,0.00,,CLR,0.00,VWS V14.01,2013-11-14 06:22:00,
2013-11-14 01:27:00,31.0,18.8,30.08,SW,219,0.0,0.0,60,0.00,,CLR,0.00,VWS V14.01,2013-11-14 06:27:00,
2013-11-14 01:32:00,31.0,18.4,30.08,SSW,210,0.0,0.0,59,0.00,,CLR,0.00,VWS V14.01,2013-11-14 06:32:00,
2013-11-14 01:37:00,31.0,18.8,30.08,SSW,213,0.0,0.0,60,0.00,,CLR,0.00,VWS V14.01,2013-11-14 06:37:00,
2013-11-14 01:42:00,30.9,18.7,30.08,SSW,196,0.0,0.0,60,0.00,,CLR,0.00,VWS V14.01,2013-11-14 06:42:00,
2013-11-14 01:47:00,30.9,18.7,30.07,SW,223,0.0,0.0,60,0.00,,CLR,0.00,VWS V14.01,2013-11-14 06:47:00,
2013-11-14 01:52:00,31.0,18.8,30.07,SW,216,0.0,0.0,60,0.00,,CLR,0.00,VWS V14.01,2013-11-14 06:52:00,
2013-11-14 01:57:00,30.9,18.7,30.07,SW,233,0.0,0.0,60,0.00,,CLR,0.00,VWS V14.01,2013-11-14 06:57:00,
2013-11-14 02:02:00,30.9,18.7,30.07,SSW,192,0.0,0.0,60,0.00,,CLR,0.00,VWS V14.01,2013-11-14 07:02:00,
2013-11-14 02:07:00,30.9,18.7,30.07,SSW,199,0.0,0.0,60,0.00,,CLR,0.00,VWS V14.01,2013-11-14 07:07:00,
2013-11-14 02:12:00,30.9,18.7,30.07,SSW,208,0.0,0.0,60,0.00,,CLR,0.00,VWS V14.01,2013-11-14 07:12:00,
2013-11-14 02:17:00,30.7,18.9,30.07,SSE,154,0.0,0.0,61,0.00,,CLR,0.00,VWS V14.01,2013-11-14 07:17:00,
2013-11-14 02:27:00,30.7,18.9,30.07,SSW,205,0.0,0.0,61,0.00,,CLR,0.00,VWS V14.01,2013-11-14 07:27:00,
2013-11-14 02:32:00,30.9,19.0,30.07,SW,215,0.0,0.0,61,0.00,,CLR,0.00,VWS V14.01,2013-11-14 07:32:00,
2013-11-14 02:37:00,30.9,19.0,30.07,SSW,199,0.0,0.0,61,0.00,,CLR,0.00,VWS V14.01,2013-11-14 07:37:00,
2013-11-14 02:42:00,30.9,19.0,30.07,SSW,208,0.0,0.0,61,0.00,,CLR,0.00,VWS V14.01,2013-11-14 07:42:00,
2013-11-14 02:47:00,30.7,18.9,30.07,SW,230,0.0,0.0,61,0.00,,CLR,0.00,VWS V14.01,2013-11-14 07:47:00,
2013-11-14 02:57:00,30.7,18.9,30.07,SSW,206,0.0,0.0,61,0.00,,CLR,0.00,VWS V14.01,2013-11-14 07:57:00,
2013-11-14 03:02:00,30.6,19.1,30.07,SSW,209,0.0,0.0,62,0.00,,CLR,0.00,VWS V14.01,2013-11-14 08:02:00,
2013-11-14 03:07:00,30.7,19.2,30.07,SW,216,0.0,0.0,62,0.00,,CLR,0.00,VWS V14.01,2013-11-14 08:07:00,
2013-11-14 03:12:00,30.7,19.2,30.07,SSW,202,0.0,0.0,62,0.00,,CLR,0.00,VWS V14.01,2013-11-14 08:12:00,
2013-11-14 03:17:00,30.6,19.1,30.07,SSW,205,0.0,0.0,62,0.00,,CLR,0.00,VWS V14.01,2013-11-14 08:17:00,
2013-11-14 03:22:00,30.6,19.1,30.07,SW,234,0.0,0.0,62,0.00,,CLR,0.00,VWS V14.01,2013-11-14 08:22:00,
2013-11-14 03:27:00,30.4,19.0,30.07,SSW,202,0.0,0.0,62,0.00,,CLR,0.00,VWS V14.01,2013-11-14 08:27:00,
2013-11-14 03:32:00,30.3,19.2,30.07,SSW,200,0.0,0.0,63,0.00,,CLR,0.00,VWS V14.01,2013-11-14 08:32:00,
2013-11-14 03:37:00,30.3,19.2,30.07,South,191,0.0,0.0,63,0.00,,CLR,0.00,VWS V14.01,2013-11-14 08:37:00,
2013-11-14 03:42:00,30.1,19.0,30.07,SSW,212,0.0,0.0,63,0.00,,CLR,0.00,VWS V14.01,2013-11-14 08:42:00,
2013-11-14 03:47:00,30.3,19.2,30.07,SSW,212,0.0,0.0,63,0.00,,CLR,0.00,VWS V14.01,2013-11-14 08:47:00,
2013-11-14 03:52:00,30.3,19.2,30.07,SSW,209,0.0,0.0,63,0.00,,CLR,0.00,VWS V14.01,2013-11-14 08:52:00,
2013-11-14 03:57:00,30.1,19.0,30.07,SSW,208,0.0,0.0,63,0.00,,CLR,0.00,VWS V14.01,2013-11-14 08:57:00,
2013-11-14 04:02:00,30.1,19.0,30.07,SSW,212,0.0,0.0,63,0.00,,CLR,0.00,VWS V14.01,2013-11-14 09:02:00,
2013-11-14 04:07:00,30.0,19.0,30.07,SSW,203,0.0,0.0,63,0.00,,CLR,0.00,VWS V14.01,2013-11-14 09:07:00,
2013-11-14 04:12:00,29.8,19.1,30.07,SSW,205,0.0,0.0,64,0.00,,CLR,0.00,VWS V14.01,2013-11-14 09:12:00,
2013-11-14 04:17:00,29.8,19.1,30.07,SSW,203,0.0,0.0,64,0.00,,CLR,0.00,VWS V14.01,2013-11-14 09:17:00,
2013-11-14 04:27:00,30.0,19.0,30.07,SSW,202,0.0,0.0,63,0.00,,CLR,0.00,VWS V14.01,2013-11-14 09:27:00,
2013-11-14 04:32:00,29.8,18.8,30.06,SSW,196,0.0,0.0,63,0.00,,CLR,0.00,VWS V14.01,2013-11-14 09:32:00,
2013-11-14 04:37:00,29.8,18.8,30.06,SSW,198,0.0,0.0,63,0.00,,CLR,0.00,VWS V14.01,2013-11-14 09:37:00,
2013-11-14 04:42:00,29.7,18.7,30.06,South,188,0.0,0.0,63,0.00,,CLR,0.00,VWS V14.01,2013-11-14 09:42:00,
2013-11-14 04:47:00,29.7,19.0,30.06,SSW,203,0.0,0.0,64,0.00,,CLR,0.00,VWS V14.01,2013-11-14 09:47:00,
2013-11-14 04:52:00,29.4,18.7,30.06,South,184,0.0,0.0,64,0.00,,CLR,0.00,VWS V14.01,2013-11-14 09:52:00,
2013-11-14 04:57:00,29.3,18.6,30.06,South,169,0.0,0.0,64,0.00,,CLR,0.00,VWS V14.01,2013-11-14 09:57:00,
2013-11-14 05:07:00,29.1,18.8,30.06,South,189,0.0,0.0,65,0.00,,CLR,0.00,VWS V14.01,2013-11-14 10:07:00,
2013-11-14 05:12:00,29.1,18.8,30.06,SSW,192,0.0,0.0,65,0.00,,CLR,0.00,VWS V14.01,2013-11-14 10:12:00,
2013-11-14 05:17:00,29.1,18.8,30.06,South,191,0.0,0.0,65,0.00,,CLR,0.00,VWS V14.01,2013-11-14 10:17:00,
2013-11-14 05:22:00,29.1,18.8,30.06,SSW,193,0.0,0.0,65,0.00,,CLR,0.00,VWS V14.01,2013-11-14 10:22:00,
2013-11-14 05:27:00,29.1,18.8,30.06,SSW,196,0.0,0.0,65,0.00,,CLR,0.00,VWS V14.01,2013-11-14 10:27:00,
2013-11-14 05:37:00,29.5,18.8,30.05,SSW,195,0.0,0.0,64,0.00,,CLR,0.00,VWS V14.01,2013-11-14 10:37:00,
2013-11-14 05:42:00,29.7,18.7,30.05,SSW,195,0.0,0.0,63,0.00,,CLR,0.00,VWS V14.01,2013-11-14 10:42:00,
2013-11-14 05:47:00,29.5,18.5,30.05,South,175,0.0,0.0,63,0.00,,CLR,0.00,VWS V14.01,2013-11-14 10:47:00,
2013-11-14 05:52:00,29.4,18.4,30.05,South,171,0.0,0.0,63,0.00,,CLR,0.00,VWS V14.01,2013-11-14 10:52:00,
2013-11-14 05:57:00,29.7,18.7,30.05,SSW,203,0.0,0.0,63,0.00,,CLR,0.00,VWS V14.01,2013-11-14 10:57:00,
2013-11-14 06:02:00,29.8,18.8,30.04,SSW,195,0.0,0.0,63,0.00,,CLR,0.00,VWS V14.01,2013-11-14 11:02:00,
2013-11-14 06:07:00,29.8,18.8,30.04,SSW,200,0.0,0.0,63,0.00,,CLR,0.00,VWS V14.01,2013-11-14 11:07:00,
2013-11-14 06:17:00,30.0,19.0,30.04,SSW,202,0.0,0.0,63,0.00,,CLR,0.00,VWS V14.01,2013-11-14 11:17:00,
2013-11-14 06:22:00,30.1,18.7,30.04,SW,219,0.0,0.0,62,0.00,,CLR,0.00,VWS V14.01,2013-11-14 11:22:00,
2013-11-14 06:27:00,30.1,18.7,30.04,South,191,0.0,0.0,62,0.00,,CLR,0.00,VWS V14.01,2013-11-14 11:27:00,
2013-11-14 06:32:00,30.3,18.9,30.03,SSW,213,0.0,0.0,62,0.00,,CLR,0.00,VWS V14.01,2013-11-14 11:32:00,
2013-11-14 06:37:00,30.4,19.0,30.03,SSW,210,0.0,0.0,62,0.00,,CLR,0.00,VWS V14.01,2013-11-14 11:37:00,
2013-11-14 06:42:00,30.4,18.6,30.03,SW,215,0.0,0.0,61,0.00,,CLR,0.00,VWS V14.01,2013-11-14 11:42:00,
2013-11-14 06:47:00,30.1,18.7,30.03,South,185,0.0,0.0,62,0.00,,CLR,0.00,VWS V14.01,2013-11-14 11:47:00,
2013-11-14 06:52:00,30.0,19.0,30.03,South,182,0.0,0.0,63,0.00,,CLR,0.00,VWS V14.01,2013-11-14 11:52:00,
2013-11-14 06:57:00,29.7,19.0,30.03,South,181,0.0,0.0,64,0.00,,CLR,0.00,VWS V14.01,2013-11-14 11:57:00,
2013-11-14 07:02:00,29.7,19.0,30.03,SSW,193,0.0,0.0,64,0.00,,CLR,0.00,VWS V14.01,2013-11-14 12:02:00,
2013-11-14 07:07:00,29.5,19.2,30.03,SSW,193,0.0,0.0,65,0.00,,CLR,0.00,VWS V14.01,2013-11-14 12:07:00,
2013-11-14 07:17:00,29.5,19.2,30.02,SSW,198,0.0,0.0,65,0.00,,CLR,0.00,VWS V14.01,2013-11-14 12:17:00,
2013-11-14 07:22:00,29.5,19.2,30.02,South,182,0.0,0.0,65,0.00,,CLR,0.00,VWS V14.01,2013-11-14 12:22:00,
2013-11-14 07:27:00,29.5,19.2,30.02,SSW,193,0.0,0.0,65,0.00,,CLR,0.00,VWS V14.01,2013-11-14 12:27:00,
2013-11-14 07:32:00,29.5,19.2,30.02,SSW,195,0.0,0.0,65,0.00,,CLR,0.00,VWS V14.01,2013-11-14 12:32:00,
2013-11-14 07:37:00,29.5,19.2,30.02,SSW,196,0.0,0.0,65,0.00,,CLR,0.00,VWS V14.01,2013-11-14 12:37:00,
2013-11-14 07:42:00,29.4,19.1,30.02,SSW,199,0.0,0.0,65,0.00,,CLR,0.00,VWS V14.01,2013-11-14 12:42:00,
2013-11-14 07:47:00,29.5,19.2,30.02,South,188,0.0,0.0,65,0.00,,CLR,0.00,VWS V14.01,2013-11-14 12:47:00,
2013-11-14 07:52:00,29.8,19.5,30.02,SSW,195,0.0,0.0,65,0.00,,CLR,0.00,VWS V14.01,2013-11-14 12:52:00,
2013-11-14 08:02:00,30.7,19.2,30.02,South,191,0.0,0.0,62,0.00,,CLR,0.00,VWS V14.01,2013-11-14 13:02:00,
2013-11-14 08:07:00,30.7,19.2,30.02,SSW,203,0.0,0.0,62,0.00,,CLR,0.00,VWS V14.01,2013-11-14 13:07:00,
2013-11-14 08:12:00,30.9,19.4,30.02,SSW,210,0.0,0.0,62,0.00,,CLR,0.00,VWS V14.01,2013-11-14 13:12:00,
2013-11-14 08:17:00,31.0,19.5,30.02,SSW,202,0.0,0.0,62,0.00,,CLR,0.00,VWS V14.01,2013-11-14 13:17:00,
2013-11-14 08:22:00,31.2,20.1,30.02,SSW,209,0.0,0.0,63,0.00,,CLR,0.00,VWS V14.01,2013-11-14 13:22:00,
2013-11-14 08:27:00,31.3,19.8,30.02,South,179,0.0,0.0,62,0.00,,CLR,0.00,VWS V14.01,2013-11-14 13:27:00,
2013-11-14 08:32:00,31.6,20.1,30.02,South,169,0.0,0.0,62,0.00,,CLR,0.00,VWS V14.01,2013-11-14 13:32:00,
2013-11-14 08:37:00,31.8,20.3,30.02,South,191,0.0,0.0,62,0.00,,CLR,0.00,VWS V14.01,2013-11-14 13:37:00,
2013-11-14 08:42:00,31.9,20.4,30.02,SSW,205,0.0,0.0,62,0.00,,CLR,0.00,VWS V14.01,2013-11-14 13:42:00,
2013-11-14 08:47:00,32.2,20.3,30.02,SSW,212,0.0,0.0,61,0.00,,CLR,0.00,VWS V14.01,2013-11-14 13:47:00,
2013-11-14 08:52:00,32.5,20.2,30.02,SSW,209,0.0,0.0,60,0.00,,CLR,0.00,VWS V14.01,2013-11-14 13:52:00,
2013-11-14 08:57:00,32.8,20.1,30.02,SSW,203,0.0,0.0,59,0.00,,CLR,0.00,VWS V14.01,2013-11-14 13:57:00,
2013-11-14 09:07:00,33.5,20.3,30.02,South,172,0.0,0.0,58,0.00,,CLR,0.00,VWS V14.01,2013-11-14 14:07:00,
2013-11-14 09:12:00,34.0,20.4,30.02,SSW,202,0.0,0.0,57,0.00,,CLR,0.00,VWS V14.01,2013-11-14 14:12:00,
2013-11-14 09:17:00,34.3,20.2,30.01,SW,224,0.0,0.0,56,0.00,,CLR,0.00,VWS V14.01,2013-11-14 14:17:00,
2013-11-14 09:22:00,34.6,20.1,30.01,SSW,206,0.0,0.0,55,0.00,,CLR,0.00,VWS V14.01,2013-11-14 14:22:00,
2013-11-14 09:27:00,34.9,20.4,30.01,SSW,199,0.0,0.0,55,0.00,,CLR,0.00,VWS V14.01,2013-11-14 14:27:00,
2013-11-14 09:32:00,35.2,20.2,30.01,South,175,0.0,0.0,54,0.00,,CLR,0.00,VWS V14.01,2013-11-14 14:32:00,
2013-11-14 09:37:00,35.6,20.6,30.01,SSW,212,0.0,0.0,54,0.00,,CLR,0.00,VWS V14.01,2013-11-14 14:37:00,
2013-11-14 09:42:00,35.9,20.5,30.01,SSW,205,0.0,0.0,53,0.00,,CLR,0.00,VWS V14.01,2013-11-14 14:42:00,
2013-11-14 09:47:00,36.3,20.8,30.01,SSW,198,0.0,0.0,53,0.00,,CLR,0.00,VWS V14.01,2013-11-14 14:47:00,
2013-11-14 09:52:00,36.6,20.6,30.01,SSW,203,0.0,0.0,52,0.00,,CLR,0.00,VWS V14.01,2013-11-14 14:52:00,
2013-11-14 09:57:00,36.9,20.5,30.01,SSW,209,0.0,0.0,51,0.00,,CLR,0.00,VWS V14.01,2013-11-14 14:57:00,
2013-11-14 10:02:00,37.3,20.9,30.01,SSW,195,0.0,0.0,51,0.00,,CLR,0.00,VWS V14.01,2013-11-14 15:02:00,
2013-11-14 10:07:00,37.8,20.8,30.01,SSW,208,0.0,0.0,50,0.00,,CLR,0.00,VWS V14.01,2013-11-14 15:07:00,
2013-11-14 10:12:00,37.9,20.9,30.01,SSW,203,0.0,0.0,50,0.00,,CLR,0.00,VWS V14.01,2013-11-14 15:12:00,
2013-11-14 10:17:00,38.3,20.8,30.01,SW,222,0.0,0.0,49,0.00,,CLR,0.00,VWS V14.01,2013-11-14 15:17:00,
2013-11-14 10:22:00,38.6,20.6,30.01,SW,223,0.0,0.0,48,0.00,,CLR,0.00,VWS V14.01,2013-11-14 15:22:00,
2013-11-14 10:27:00,39.3,21.3,30.01,SW,222,0.0,0.0,48,0.00,,CLR,0.00,VWS V14.01,2013-11-14 15:27:00,
2013-11-14 10:32:00,39.5,21.0,30.00,South,185,0.0,0.0,47,0.00,,CLR,0.00,VWS V14.01,2013-11-14 15:32:00,
2013-11-14 10:42:00,40.1,20.5,30.00,SW,215,0.0,0.0,45,0.00,,CLR,0.00,VWS V14.01,2013-11-14 15:42:00,
2013-11-14 10:47:00,40.3,20.7,30.00,SW,224,0.0,0.0,45,0.00,,CLR,0.00,VWS V14.01,2013-11-14 15:47:00,
2013-11-14 10:52:00,40.9,21.2,30.00,SW,215,0.0,0.0,45,0.00,,CLR,0.00,VWS V14.01,2013-11-14 15:52:00,
2013-11-14 11:02:00,41.8,22.0,29.99,SW,233,0.0,0.0,45,0.00,,CLR,0.00,VWS V14.01,2013-11-14 16:02:00,
2013-11-14 11:07:00,42.3,22.5,29.99,SSW,195,0.0,0.0,45,0.00,,CLR,0.00,VWS V14.01,2013-11-14 16:07:00,
2013-11-14 11:12:00,42.6,20.6,29.99,SW,216,0.0,0.0,41,0.00,,CLR,0.00,VWS V14.01,2013-11-14 16:12:00,
2013-11-14 11:17:00,42.8,20.2,29.99,WSW,258,0.0,0.0,40,0.00,,CLR,0.00,VWS V14.01,2013-11-14 16:17:00,
2013-11-14 11:22:00,42.9,20.8,29.99,SSW,192,0.0,0.0,41,0.00,,CLR,0.00,VWS V14.01,2013-11-14 16:22:00,
2013-11-14 11:27:00,43.3,21.8,29.99,SSE,167,0.0,0.0,42,0.00,,CLR,0.00,VWS V14.01,2013-11-14 16:27:00,
2013-11-14 11:32:00,43.5,20.2,29.98,South,174,0.0,0.0,39,0.00,,CLR,0.00,VWS V14.01,2013-11-14 16:32:00,
2013-11-14 11:37:00,43.6,21.5,29.98,SW,220,0.0,0.0,41,0.00,,CLR,0.00,VWS V14.01,2013-11-14 16:37:00,
2013-11-14 11:42:00,43.9,21.7,29.98,SW,215,0.0,0.0,41,0.00,,CLR,0.00,VWS V14.01,2013-11-14 16:42:00,
2013-11-14 11:47:00,44.6,21.8,29.97,SSW,193,0.0,0.0,40,0.00,,CLR,0.00,VWS V14.01,2013-11-14 16:47:00,
2013-11-14 11:52:00,44.9,20.9,29.97,SSW,212,0.0,0.0,38,0.00,,CLR,0.00,VWS V14.01,2013-11-14 16:52:00,
2013-11-14 11:57:00,45.1,21.0,29.97,South,188,0.0,0.0,38,0.00,,CLR,0.00,VWS V14.01,2013-11-14 16:57:00,
2013-11-14 12:02:00,44.9,20.2,29.96,SSW,208,0.0,0.0,37,0.00,,CLR,0.00,VWS V14.01,2013-11-14 17:02:00,
2013-11-14 12:07:00,45.5,20.8,29.96,SSW,208,0.0,0.0,37,0.00,,CLR,0.00,VWS V14.01,2013-11-14 17:07:00,
2013-11-14 12:12:00,45.8,20.4,29.96,SW,215,0.0,0.0,36,0.00,,CLR,0.00,VWS V14.01,2013-11-14 17:12:00,
2013-11-14 12:17:00,46.4,20.2,29.95,South,179,0.0,0.0,35,0.00,,CLR,0.00,VWS V14.01,2013-11-14 17:17:00,
2013-11-14 12:22:00,46.1,20.6,29.95,SSW,193,0.0,0.0,36,0.00,,CLR,0.00,VWS V14.01,2013-11-14 17:22:00,
2013-11-14 12:32:00,46.8,20.6,29.94,SW,232,0.0,0.0,35,0.00,,CLR,0.00,VWS V14.01,2013-11-14 17:32:00,
2013-11-14 12:37:00,46.8,19.9,29.94,SSW,206,0.0,0.0,34,0.00,,CLR,0.00,VWS V14.01,2013-11-14 17:37:00,
2013-11-14 12:42:00,47.6,21.3,29.94,SSW,196,0.0,0.0,35,0.00,,CLR,0.00,VWS V14.01,2013-11-14 17:42:00,
2013-11-14 12:47:00,47.3,20.4,29.93,SSW,210,0.0,0.0,34,0.00,,CLR,0.00,VWS V14.01,2013-11-14 17:47:00,
2013-11-14 12:52:00,47.4,21.1,29.93,SSW,199,0.0,0.0,35,0.00,,CLR,0.00,VWS V14.01,2013-11-14 17:52:00,
2013-11-14 12:57:00,47.4,19.0,29.93,SSE,152,0.0,0.0,32,0.00,,CLR,0.00,VWS V14.01,2013-11-14 17:57:00,
2013-11-14 13:02:00,47.6,19.2,29.92,SSW,213,0.0,0.0,32,0.00,,CLR,0.00,VWS V14.01,2013-11-14 18:02:00,
2013-11-14 13:07:00,47.7,20.0,29.92,SSW,213,0.0,0.0,33,0.00,,CLR,0.00,VWS V14.01,2013-11-14 18:07:00,
2013-11-14 13:12:00,48.3,20.5,29.92,SSW,206,0.0,0.0,33,0.00,,CLR,0.00,VWS V14.01,2013-11-14 18:12:00,
2013-11-14 13:17:00,48.8,18.8,29.92,SW,217,0.0,0.0,30,0.00,,CLR,0.00,VWS V14.01,2013-11-14 18:17:00,
2013-11-14 13:22:00,49.1,19.8,29.92,South,174,0.0,0.0,31,0.00,,CLR,0.00,VWS V14.01,2013-11-14 18:22:00,
2013-11-14 13:32:00,49.6,20.2,29.91,SSW,208,0.0,0.0,31,0.00,,CLR,0.00,VWS V14.01,2013-11-14 18:32:00,
2013-11-14 13:37:00,49.9,19.7,29.91,SSW,196,0.0,0.0,30,0.00,,CLR,0.00,VWS V14.01,2013-11-14 18:37:00,
2013-11-14 13:42:00,49.8,18.0,29.91,SW,219,0.0,0.0,28,0.00,,CLR,0.00,VWS V14.01,2013-11-14 18:42:00,
2013-11-14 13:47:00,50.5,18.6,29.90,SSW,208,0.0,0.0,28,0.00,,CLR,0.00,VWS V14.01,2013-11-14 18:47:00,
2013-11-14 13:52:00,50.8,18.9,29.90,SSW,199,0.0,0.0,28,0.00,,CLR,0.00,VWS V14.01,2013-11-14 18:52:00,
2013-11-14 13:57:00,51.1,18.3,29.90,SSW,210,0.0,0.0,27,0.00,,CLR,0.00,VWS V14.01,2013-11-14 18:57:00,
2013-11-14 14:02:00,50.8,18.9,29.89,SW,219,0.0,0.0,28,0.00,,CLR,0.00,VWS V14.01,2013-11-14 19:02:00,
2013-11-14 14:07:00,51.0,19.1,29.89,South,191,0.0,0.0,28,0.00,,CLR,0.00,VWS V14.01,2013-11-14 19:07:00,
2013-11-14 14:12:00,51.1,20.0,29.89,SW,216,0.0,0.0,29,0.00,,CLR,0.00,VWS V14.01,2013-11-14 19:12:00,
2013-11-14 14:17:00,50.7,18.8,29.89,South,188,0.0,0.0,28,0.00,,CLR,0.00,VWS V14.01,2013-11-14 19:17:00,
2013-11-14 14:22:00,50.8,18.0,29.89,SSW,198,0.0,0.0,27,0.00,,CLR,0.00,VWS V14.01,2013-11-14 19:22:00,
2013-11-14 14:27:00,50.8,18.9,29.89,SSW,195,0.0,0.0,28,0.00,,CLR,0.00,VWS V14.01,2013-11-14 19:27:00,
2013-11-14 14:32:00,51.0,19.1,29.88,South,176,0.0,0.0,28,0.00,,CLR,0.00,VWS V14.01,2013-11-14 19:32:00,
2013-11-14 14:37:00,51.1,19.1,29.88,SSW,193,0.0,0.0,28,0.00,,CLR,0.00,VWS V14.01,2013-11-14 19:37:00,
2013-11-14 14:42:00,51.4,19.4,29.88,SSW,213,0.0,0.0,28,0.00,,CLR,0.00,VWS V14.01,2013-11-14 19:42:00,
2013-11-14 14:47:00,51.4,19.4,29.87,SSW,208,0.0,0.0,28,0.00,,CLR,0.00,VWS V14.01,2013-11-14 19:47:00,
2013-11-14 14:52:00,51.3,19.3,29.87,South,181,0.0,0.0,28,0.00,,CLR,0.00,VWS V14.01,2013-11-14 19:52:00,
2013-11-14 14:57:00,51.4,18.6,29.87,SW,223,0.0,0.0,27,0.00,,CLR,0.00,VWS V14.01,2013-11-14 19:57:00,
2013-11-14 15:02:00,51.9,19.0,29.87,South,182,0.0,0.0,27,0.00,,CLR,0.00,VWS V14.01,2013-11-14 20:02:00,
2013-11-14 15:07:00,51.7,18.8,29.87,SSW,206,0.0,0.0,27,0.00,,CLR,0.00,VWS V14.01,2013-11-14 20:07:00,
2013-11-14 15:12:00,51.9,20.7,29.87,SSW,209,0.0,0.0,29,0.00,,CLR,0.00,VWS V14.01,2013-11-14 20:12:00,
2013-11-14 15:17:00,51.9,19.0,29.87,SW,217,0.0,0.0,27,0.00,,CLR,0.00,VWS V14.01,2013-11-14 20:17:00,
2013-11-14 15:22:00,51.9,19.8,29.87,SSE,158,0.0,0.0,28,0.00,,CLR,0.00,VWS V14.01,2013-11-14 20:22:00,
2013-11-14 15:27:00,51.7,19.7,29.87,South,182,0.0,0.0,28,0.00,,CLR,0.00,VWS V14.01,2013-11-14 20:27:00,
2013-11-14 15:32:00,51.6,19.6,29.86,SSW,195,0.0,0.0,28,0.00,,CLR,0.00,VWS V14.01,2013-11-14 20:32:00,
2013-11-14 15:37:00,51.6,18.7,29.86,SSW,212,0.0,0.0,27,0.00,,CLR,0.00,VWS V14.01,2013-11-14 20:37:00,
2013-11-14 15:42:00,51.4,18.6,29.86,SSW,196,0.0,0.0,27,0.00,,CLR,0.00,VWS V14.01,2013-11-14 20:42:00,
2013-11-14 15:47:00,50.8,18.0,29.86,SSW,213,0.0,0.0,27,0.00,,CLR,0.00,VWS V14.01,2013-11-14 20:47:00,
2013-11-14 15:52:00,50.5,18.6,29.86,SSW,212,0.0,0.0,28,0.00,,CLR,0.00,VWS V14.01,2013-11-14 20:52:00,
2013-11-14 15:57:00,50.4,17.7,29.86,SW,222,0.0,0.0,27,0.00,,CLR,0.00,VWS V14.01,2013-11-14 20:57:00,
2013-11-14 16:07:00,49.9,18.1,29.86,SSW,209,0.0,0.0,28,0.00,,CLR,0.00,VWS V14.01,2013-11-14 21:07:00,
2013-11-14 16:12:00,49.8,18.0,29.86,SSW,210,0.0,0.0,28,0.00,,CLR,0.00,VWS V14.01,2013-11-14 21:12:00,
2013-11-14 16:22:00,49.8,18.8,29.86,SW,217,0.0,0.0,29,0.00,,CLR,0.00,VWS V14.01,2013-11-14 21:22:00,
2013-11-14 16:27:00,49.6,19.5,29.86,SSE,161,0.0,0.0,30,0.00,,CLR,0.00,VWS V14.01,2013-11-14 21:27:00,
2013-11-14 16:32:00,49.4,20.0,29.86,South,178,0.0,0.0,31,0.00,,CLR,0.00,VWS V14.01,2013-11-14 21:32:00,
2013-11-14 16:37:00,48.9,20.4,29.86,SSE,165,0.0,0.0,32,0.00,,CLR,0.00,VWS V14.01,2013-11-14 21:37:00,
2013-11-14 16:42:00,48.6,20.8,29.86,SSW,193,0.0,0.0,33,0.00,,CLR,0.00,VWS V14.01,2013-11-14 21:42:00,
2013-11-14 16:47:00,48.5,21.4,29.85,SSW,209,0.0,0.0,34,0.00,,CLR,0.00,VWS V14.01,2013-11-14 21:47:00,
2013-11-14 16:52:00,48.2,21.2,29.85,South,171,0.0,0.0,34,0.00,,CLR,0.00,VWS V14.01,2013-11-14 21:52:00,
2013-11-14 16:57:00,48.0,21.0,29.85,SSW,198,0.0,0.0,34,0.00,,CLR,0.00,VWS V14.01,2013-11-14 21:57:00,
2013-11-14 17:02:00,47.7,21.4,29.86,SSW,198,0.0,0.0,35,0.00,,CLR,0.00,VWS V14.01,2013-11-14 22:02:00,
2013-11-14 17:07:00,47.4,21.1,29.86,SSW,203,0.0,0.0,35,0.00,,CLR,0.00,VWS V14.01,2013-11-14 22:07:00,
2013-11-14 17:12:00,47.3,21.0,29.86,SSW,208,0.0,0.0,35,0.00,,CLR,0.00,VWS V14.01,2013-11-14 22:12:00,
2013-11-14 17:17:00,47.1,20.9,29.86,SSW,206,0.0,0.0,35,0.00,,CLR,0.00,VWS V14.01,2013-11-14 22:17:00,
2013-11-14 17:22:00,46.8,20.6,29.86,SSW,196,0.0,0.0,35,0.00,,CLR,0.00,VWS V14.01,2013-11-14 22:22:00,
2013-11-14 17:27:00,46.5,20.3,29.86,South,179,0.0,0.0,35,0.00,,CLR,0.00,VWS V14.01,2013-11-14 22:27:00,
2013-11-14 17:32:00,46.4,20.2,29.85,SSW,195,0.0,0.0,35,0.00,,CLR,0.00,VWS V14.01,2013-11-14 22:32:00,
2013-11-14 17:37:00,46.2,20.1,29.85,South,186,0.0,0.0,35,0.00,,CLR,0.00,VWS V14.01,2013-11-14 22:37:00,
2013-11-14 17:42:00,45.8,20.4,29.85,SSW,202,0.0,0.0,36,0.00,,CLR,0.00,VWS V14.01,2013-11-14 22:42:00,
2013-11-14 17:47:00,45.7,20.9,29.86,South,179,0.0,0.0,37,0.00,,CLR,0.00,VWS V14.01,2013-11-14 22:47:00,
2013-11-14 17:57:00,45.5,20.8,29.86,SW,219,0.0,0.0,37,0.00,,CLR,0.00,VWS V14.01,2013-11-14 22:57:00,
2013-11-14 18:02:00,45.5,20.8,29.86,South,182,0.0,0.0,37,0.00,,CLR,0.00,VWS V14.01,2013-11-14 23:02:00,
2013-11-14 18:07:00,45.2,21.1,29.86,South,185,0.0,0.0,38,0.00,,CLR,0.00,VWS V14.01,2013-11-14 23:07:00,
2013-11-14 18:12:00,45.1,21.0,29.86,SSW,196,0.0,0.0,38,0.00,,CLR,0.00,VWS V14.01,2013-11-14 23:12:00,
2013-11-14 18:17:00,44.8,20.8,29.87,South,188,0.0,0.0,38,0.00,,CLR,0.00,VWS V14.01,2013-11-14 23:17:00,
2013-11-14 18:22:00,44.5,21.1,29.87,SSE,158,0.0,0.0,39,0.00,,CLR,0.00,VWS V14.01,2013-11-14 23:22:00,
2013-11-14 18:27:00,44.2,21.4,29.87,South,188,0.0,0.0,40,0.00,,CLR,0.00,VWS V14.01,2013-11-14 23:27:00,
2013-11-14 18:32:00,44.1,21.3,29.87,South,189,0.0,0.0,40,0.00,,CLR,0.00,VWS V14.01,2013-11-14 23:32:00,
2013-11-14 18:37:00,44.1,21.3,29.87,SSW,196,0.0,0.0,40,0.00,,CLR,0.00,VWS V14.01,2013-11-14 23:37:00,
2013-11-14 18:42:00,44.2,21.4,29.87,SSW,198,0.0,0.0,40,0.00,,CLR,0.00,VWS V14.01,2013-11-14 23:42:00,
2013-11-14 18:47:00,44.1,21.3,29.87,SSW,200,0.0,0.0,40,0.00,,CLR,0.00,VWS V14.01,2013-11-14 23:47:00,
2013-11-14 18:52:00,44.3,21.5,29.87,SW,223,0.0,0.0,40,0.00,,CLR,0.00,VWS V14.01,2013-11-14 23:52:00,
2013-11-14 18:57:00,44.1,21.9,29.87,SSW,212,0.0,0.0,41,0.00,,CLR,0.00,VWS V14.01,2013-11-14 23:57:00,
2013-11-14 19:02:00,43.9,21.7,29.88,SSW,196,0.0,0.0,41,0.00,,CLR,0.00,VWS V14.01,2013-11-15 00:02:00,
2013-11-14 19:07:00,43.9,21.7,29.88,SSW,203,0.0,0.0,41,0.00,,CLR,0.00,VWS V14.01,2013-11-15 00:07:00,
2013-11-14 19:17:00,43.8,21.6,29.87,SW,220,0.0,0.0,41,0.00,,CLR,0.00,VWS V14.01,2013-11-15 00:17:00,
2013-11-14 19:22:00,43.6,22.0,29.87,SSW,199,0.0,0.0,42,0.00,,CLR,0.00,VWS V14.01,2013-11-15 00:22:00,
2013-11-14 19:27:00,43.8,22.2,29.87,SSW,192,0.0,0.0,42,0.00,,CLR,0.00,VWS V14.01,2013-11-15 00:27:00,
2013-11-14 19:32:00,43.5,22.0,29.87,South,178,0.0,0.0,42,0.00,,CLR,0.00,VWS V14.01,2013-11-15 00:32:00,
2013-11-14 19:42:00,43.5,22.5,29.87,SW,227,0.0,0.0,43,0.00,,CLR,0.00,VWS V14.01,2013-11-15 00:42:00,
2013-11-14 19:52:00,43.3,22.3,29.87,SSW,205,0.0,0.0,43,0.00,,CLR,0.00,VWS V14.01,2013-11-15 00:52:00,
2013-11-14 19:57:00,43.2,22.8,29.87,SSW,200,0.0,0.0,44,0.00,,CLR,0.00,VWS V14.01,2013-11-15 00:57:00,
2013-11-14 20:07:00,42.6,22.8,29.87,South,174,0.0,0.0,45,0.00,,CLR,0.00,VWS V14.01,2013-11-15 01:07:00,
2013-11-14 20:17:00,41.9,23.2,29.87,South,182,0.0,0.0,47,0.00,,CLR,0.00,VWS V14.01,2013-11-15 01:17:00,
2013-11-14 20:22:00,41.9,23.2,29.87,SSE,157,0.0,0.0,47,0.00,,CLR,0.00,VWS V14.01,2013-11-15 01:22:00,
2013-11-14 20:27:00,41.8,23.1,29.87,South,178,0.0,0.0,47,0.00,,CLR,0.00,VWS V14.01,2013-11-15 01:27:00,
2013-11-14 20:32:00,41.6,23.4,29.86,SSW,202,0.0,0.0,48,0.00,,CLR,0.00,VWS V14.01,2013-11-15 01:32:00,
2013-11-14 20:37:00,41.6,23.4,29.86,SSW,208,0.0,0.0,48,0.00,,CLR,0.00,VWS V14.01,2013-11-15 01:37:00,
2013-11-14 20:47:00,41.8,23.6,29.86,South,176,0.0,0.0,48,0.00,,CLR,0.00,VWS V14.01,2013-11-15 01:47:00,
2013-11-14 20:52:00,41.8,23.6,29.86,SSW,205,0.0,0.0,48,0.00,,CLR,0.00,VWS V14.01,2013-11-15 01:52:00,
2013-11-14 21:02:00,41.8,23.6,29.87,SSW,198,0.0,0.0,48,0.00,,CLR,0.00,VWS V14.01,2013-11-15 02:02:00,
2013-11-14 21:07:00,41.8,23.6,29.87,SSW,206,0.0,0.0,48,0.00,,CLR,0.00,VWS V14.01,2013-11-15 02:07:00,
2013-11-14 21:12:00,41.6,23.4,29.87,SSW,208,0.0,0.0,48,0.00,,CLR,0.00,VWS V14.01,2013-11-15 02:12:00,
2013-11-14 21:22:00,41.3,23.1,29.87,SSW,200,0.0,0.0,48,0.00,,CLR,0.00,VWS V14.01,2013-11-15 02:22:00,
2013-11-14 21:27:00,41.2,23.5,29.87,SSW,198,0.0,0.0,49,0.00,,CLR,0.00,VWS V14.01,2013-11-15 02:27:00,
2013-11-14 21:32:00,41.1,23.4,29.86,SSW,203,0.0,0.0,49,0.00,,CLR,0.00,VWS V14.01,2013-11-15 02:32:00,
2013-11-14 21:42:00,40.8,23.6,29.86,SW,224,0.0,0.0,50,0.00,,CLR,0.00,VWS V14.01,2013-11-15 02:42:00,
2013-11-14 21:47:00,40.6,23.4,29.88,SW,230,0.0,0.0,50,0.00,,CLR,0.00,VWS V14.01,2013-11-15 02:47:00,
2013-11-14 21:52:00,40.8,23.1,29.88,SW,224,0.0,0.0,49,0.00,,CLR,0.00,VWS V14.01,2013-11-15 02:52:00,
2013-11-14 21:57:00,40.8,23.1,29.88,SSW,193,0.0,0.0,49,0.00,,CLR,0.00,VWS V14.01,2013-11-15 02:57:00,
2013-11-14 22:02:00,40.6,23.4,29.88,SSW,202,0.0,0.0,50,0.00,,CLR,0.00,VWS V14.01,2013-11-15 03:02:00,
2013-11-14 22:12:00,40.6,23.0,29.88,SSW,209,0.0,0.0,49,0.00,,CLR,0.00,VWS V14.01,2013-11-15 03:12:00,
2013-11-14 22:17:00,40.3,23.1,29.88,SSW,199,0.0,0.0,50,0.00,,CLR,0.00,VWS V14.01,2013-11-15 03:17:00,
2013-11-14 22:22:00,40.1,23.0,29.88,SSW,199,0.0,0.0,50,0.00,,CLR,0.00,VWS V14.01,2013-11-15 03:22:00,
2013-11-14 22:27:00,39.9,23.3,29.88,South,191,0.0,0.0,51,0.00,,CLR,0.00,VWS V14.01,2013-11-15 03:27:00,
2013-11-14 22:32:00,39.6,23.4,29.87,SSW,202,0.0,0.0,52,0.00,,CLR,0.00,VWS V14.01,2013-11-15 03:32:00,
2013-11-14 22:37:00,39.5,23.4,29.87,South,189,0.0,0.0,52,0.00,,CLR,0.00,VWS V14.01,2013-11-15 03:37:00,
2013-11-14 22:42:00,39.3,23.2,29.87,South,189,0.0,0.0,52,0.00,,CLR,0.00,VWS V14.01,2013-11-15 03:42:00,
2013-11-14 22:52:00,39.5,23.4,29.87,SSW,213,0.0,0.0,52,0.00,,CLR,0.00,VWS V14.01,2013-11-15 03:52:00,
2013-11-14 22:57:00,39.5,23.4,29.87,SSW,196,0.0,0.0,52,0.00,,CLR,0.00,VWS V14.01,2013-11-15 03:57:00,
2013-11-14 23:02:00,39.2,23.1,29.87,SSW,198,0.0,0.0,52,0.00,,CLR,0.00,VWS V14.01,2013-11-15 04:02:00,
2013-11-14 23:14:00,38.9,23.2,29.87,SSW,200,0.0,0.0,53,0.00,,CLR,0.00,VWS V14.01,2013-11-15 04:14:00,
2013-11-14 23:22:00,38.9,23.2,29.87,SSW,203,0.0,0.0,53,0.00,,CLR,0.00,VWS V14.01,2013-11-15 04:22:00,
2013-11-14 23:32:00,39.1,23.4,29.87,SSW,199,0.0,0.0,53,0.00,,CLR,0.00,VWS V14.01,2013-11-15 04:32:00,
2013-11-14 23:37:00,39.1,23.4,29.87,SSW,208,0.0,0.0,53,0.00,,CLR,0.00,VWS V14.01,2013-11-15 04:37:00,
2013-11-14 23:47:00,39.5,23.4,29.87,SSW,198,0.0,0.0,52,0.00,,CLR,0.00,VWS V14.01,2013-11-15 04:47:00,
2013-11-14 23:52:00,39.5,23.4,29.87,SSW,199,0.0,0.0,52,0.00,,CLR,0.00,VWS V14.01,2013-11-15 04:52:00,
2013-11-14 23:57:00,39.5,23.4,29.87,SSW,196,0.0,0.0,52,0.00,,CLR,0.00,VWS V14.01,2013-11-15 04:57:00,